{"data":{"norad_id":56813,"epoch":"2026-05-25T02:57:55.850976Z","epoch_age_seconds":54421,"freshness":"FRESH","line1":"1 56813U 23078AY  26145.12356309 -.00000216  00000+0 -10262-4 0  9995","line2":"2 56813  69.9984 151.5628 0003589 266.6716  93.4033 14.98330930164134","mean_motion":14.9833093,"eccentricity":0.0003589,"inclination_deg":69.9984,"raan_deg":151.5628,"arg_perigee_deg":266.6716,"mean_anomaly_deg":93.4033,"bstar":-1.0262e-5,"rev_number":16413,"period_min":96.106939472977,"perigee_km":569.55859180124,"apogee_km":574.547438194,"semimajor_km":6950.1900149976,"source":"CELESTRAK","updated_at":"2026-05-25T13:38:18.160823Z"}}